Weather History for Lakeville, MN

Change the Weather History Date:

Saturday, March 16, 2013

  Actual Average Record
Temperature  
Mean Temperature 17 °F -  
Max Temperature 24 °F 39 °F 78 °F (2012)
Min Temperature 10 °F 20 °F -4 °F (1997)
Degree Days  
Heating Degree Days 48    
Moisture  
Dew Point 14 °F    
Average Humidity 79    
Maximum Humidity 100    
Minimum Humidity 59    
Precipitation  
Precipitation 0.00 in - - ()
Sea Level Pressure  
Sea Level Pressure 30.06 in    
Wind  
Wind Speed 10 mph (NW)    
Max Wind Speed 16 mph    
Max Gust Speed 16 mph    
Visibility 10 miles    
Events      
Averages and records for this station are not official NWS values.
T = Trace of Precipitation, MM = Missing Value Source: NWS Daily Summary

Daily Weather History Graph

Daily Weather History Graph

Search for Another Location

Airport:

Trip Planner

Search our weather history database for the weather conditions in past years. The results will help you decide how hot, cold, wet, or windy it might be!

Date:

Astronomy

Mar. 16, 2013 Rise Set
Actual Time 7:22 AM CDT 7:20 PM CDT
Civil Twilight 6:53 AM CDT 7:49 PM CDT
Nautical Twilight 6:19 AM CDT 8:23 PM CDT
Astronomical Twilight 5:45 AM CDT 8:58 PM CDT
Moon 9:40 AM CDT (3/16) No Moon Set
Length of Visible Light 12h 55m
Length of Day
11h 57m
Waxing Crescent, 23% of the Moon is Illuminated
Mar 16
Waxing Crescent
Mar 19
First Quarter
Mar 27
Full
Apr 2
Last Quarter
Apr 10
New

Hourly Weather History & Observations

Time (CDT) Temp. Windchill Dew Point Humidity Pressure Visibility Wind Dir Wind Speed Gust Speed Precip Events Conditions
12:04 AM 24.8 °F 15.3 °F 24.8 °F 100% 29.87 in 4.0 mi NNE 9.2 mph - N/A   Overcast
12:25 AM 24.8 °F 16.1 °F 23.0 °F 93% 29.87 in 5.0 mi NNE 8.1 mph - N/A   Overcast
12:44 AM 24.8 °F 15.3 °F 21.2 °F 86% 29.88 in 10.0 mi North 9.2 mph - N/A   Overcast
1:04 AM 23.0 °F 11.7 °F 21.2 °F 93% 29.89 in 10.0 mi North 11.5 mph - N/A   Overcast
1:25 AM 23.0 °F 13.1 °F 21.2 °F 93% 29.89 in 10.0 mi North 9.2 mph - N/A   Overcast
1:45 AM 23.0 °F 13.1 °F 21.2 °F 93% 29.89 in 7.0 mi NNE 9.2 mph - N/A   Overcast
2:04 AM 23.0 °F 12.4 °F 21.2 °F 93% 29.90 in 5.0 mi North 10.4 mph - N/A   Overcast
2:25 AM 21.2 °F 10.9 °F 21.2 °F 100% 29.91 in 5.0 mi North 9.2 mph - N/A   Overcast
2:45 AM 21.2 °F 10.1 °F 21.2 °F 100% 29.91 in 5.0 mi North 10.4 mph - N/A   Overcast
3:04 AM 21.2 °F 8.3 °F 19.4 °F 93% 29.91 in 7.0 mi North 13.8 mph - N/A   Overcast
3:25 AM 21.2 °F 12.6 °F 19.4 °F 93% 29.92 in 10.0 mi North 6.9 mph - N/A   Overcast
3:45 AM 19.4 °F 7.9 °F 19.4 °F 100% 29.93 in 10.0 mi North 10.4 mph - N/A   Overcast
4:04 AM 19.4 °F 7.2 °F 17.6 °F 93% 29.93 in 10.0 mi NNW 11.5 mph - N/A   Overcast
4:25 AM 19.4 °F 7.2 °F 17.6 °F 93% 29.95 in 10.0 mi North 11.5 mph 16.1 mph N/A   Overcast
4:44 AM 19.4 °F 7.2 °F 17.6 °F 93% 29.96 in 10.0 mi North 11.5 mph 16.1 mph N/A   Overcast
5:05 AM 19.4 °F 6.0 °F 15.8 °F 86% 29.97 in 10.0 mi NNW 13.8 mph - N/A   Overcast
5:24 AM 19.4 °F 6.6 °F 15.8 °F 86% 29.98 in 10.0 mi NNW 12.7 mph - N/A   Overcast
5:45 AM 19.4 °F 7.9 °F 15.8 °F 86% 29.99 in 10.0 mi North 10.4 mph - N/A   Overcast
6:05 AM 17.6 °F 5.0 °F 15.8 °F 93% 30.00 in 10.0 mi North 11.5 mph - N/A   Overcast
6:24 AM 17.6 °F 6.4 °F 15.8 °F 93% 30.01 in 10.0 mi North 9.2 mph - N/A   Overcast
6:45 AM 17.6 °F 5.0 °F 14.0 °F 86% 30.02 in 10.0 mi NNW 11.5 mph - N/A   Mostly Cloudy
7:05 AM 17.6 °F 8.2 °F 12.2 °F 79% 30.04 in 10.0 mi North 6.9 mph - N/A   Scattered Clouds
7:24 AM 17.6 °F 7.3 °F 12.2 °F 79% 30.05 in 10.0 mi North 8.1 mph - N/A   Clear
7:45 AM 17.6 °F 9.3 °F 12.2 °F 79% 30.06 in 10.0 mi North 5.8 mph - N/A   Clear
8:05 AM 17.6 °F 6.4 °F 12.2 °F 79% 30.07 in 10.0 mi North 9.2 mph - N/A   Clear
8:24 AM 17.6 °F 5.7 °F 12.2 °F 79% 30.07 in 10.0 mi North 10.4 mph - N/A   Clear
8:45 AM 17.6 °F 5.0 °F 12.2 °F 79% 30.08 in 10.0 mi North 11.5 mph - N/A   Clear
9:05 AM 19.4 °F 7.2 °F 15.8 °F 86% 30.08 in 10.0 mi NNW 11.5 mph - N/A   Mostly Cloudy
9:24 AM 19.4 °F 7.2 °F 14.0 °F 80% 30.08 in 10.0 mi North 11.5 mph - N/A   Scattered Clouds
9:44 AM 19.4 °F 7.9 °F 14.0 °F 80% 30.09 in 10.0 mi North 10.4 mph - N/A   Clear
10:05 AM 19.4 °F 7.2 °F 14.0 °F 80% 30.10 in 10.0 mi NNW 11.5 mph - N/A   Clear
10:24 AM 19.4 °F 7.2 °F 14.0 °F 80% 30.10 in 10.0 mi NNW 11.5 mph - N/A   Scattered Clouds
10:44 AM 21.2 °F 10.1 °F 14.0 °F 74% 30.11 in 10.0 mi NW 10.4 mph - N/A   Scattered Clouds
11:05 AM 21.2 °F 12.6 °F 15.8 °F 80% 30.11 in 10.0 mi NNW 6.9 mph - N/A   Scattered Clouds
11:24 AM 21.2 °F 11.7 °F 15.8 °F 80% 30.11 in 10.0 mi NW 8.1 mph - N/A   Scattered Clouds
11:45 AM 21.2 °F 13.6 °F 14.0 °F 74% 30.11 in 10.0 mi NNW 5.8 mph - N/A   Scattered Clouds
12:05 PM 23.0 °F 13.9 °F 15.8 °F 74% 30.11 in 10.0 mi WNW 8.1 mph - N/A   Mostly Cloudy
12:24 PM 23.0 °F 12.4 °F 15.8 °F 74% 30.11 in 10.0 mi WNW 10.4 mph - N/A   Mostly Cloudy
12:45 PM 23.0 °F 12.4 °F 15.8 °F 74% 30.11 in 10.0 mi WNW 10.4 mph - N/A   Overcast
1:05 PM 23.0 °F 11.1 °F 15.8 °F 74% 30.12 in 10.0 mi NW 12.7 mph 16.1 mph N/A   Mostly Cloudy
1:45 PM 24.8 °F 12.9 °F 15.8 °F 69% 30.12 in 10.0 mi NW 13.8 mph - N/A   Mostly Cloudy
2:05 PM 23.0 °F 10.6 °F 15.8 °F 74% 30.12 in 10.0 mi WNW 13.8 mph - N/A   Mostly Cloudy
2:24 PM 24.8 °F 12.9 °F 15.8 °F 69% 30.11 in 10.0 mi WNW 13.8 mph - N/A   Mostly Cloudy
2:45 PM 23.0 °F 11.7 °F 14.0 °F 68% 30.10 in 10.0 mi NW 11.5 mph 16.1 mph N/A   Scattered Clouds
3:05 PM 24.8 °F 14.0 °F 15.8 °F 69% 30.10 in 10.0 mi NW 11.5 mph - N/A   Clear
3:24 PM 24.8 °F 13.4 °F 14.0 °F 64% 30.10 in 10.0 mi WNW 12.7 mph - N/A   Clear
3:45 PM 24.8 °F 13.4 °F 14.0 °F 64% 30.09 in 10.0 mi NW 12.7 mph - N/A   Clear
4:05 PM 24.8 °F 13.4 °F 14.0 °F 64% 30.09 in 10.0 mi WNW 12.7 mph - N/A   Clear
4:24 PM 24.8 °F 12.9 °F 12.2 °F 59% 30.08 in 10.0 mi NW 13.8 mph - N/A   Clear
4:45 PM 24.8 °F 12.9 °F 12.2 °F 59% 30.08 in 10.0 mi WNW 13.8 mph - N/A   Clear
5:04 PM 24.8 °F 13.4 °F 12.2 °F 59% 30.07 in 10.0 mi NW 12.7 mph - N/A   Clear
5:25 PM 23.0 °F 11.7 °F 12.2 °F 63% 30.07 in 10.0 mi WNW 11.5 mph - N/A   Clear
5:44 PM 23.0 °F 13.1 °F 12.2 °F 63% 30.07 in 10.0 mi NW 9.2 mph - N/A   Clear
6:04 PM 21.2 °F 7.3 °F 10.4 °F 63% 30.09 in 10.0 mi West 16.1 mph - N/A   Clear
6:25 PM 21.2 °F 9.5 °F 10.4 °F 63% 30.10 in 10.0 mi WNW 11.5 mph - N/A   Clear
6:44 PM 21.2 °F 8.3 °F 10.4 °F 63% 30.11 in 10.0 mi WNW 13.8 mph - N/A   Clear
7:05 PM 19.4 °F 7.2 °F 10.4 °F 68% 30.13 in 10.0 mi West 11.5 mph - N/A   Clear
7:24 PM 19.4 °F 8.6 °F 10.4 °F 68% 30.13 in 10.0 mi West 9.2 mph - N/A   Clear
7:45 PM 17.6 °F 5.7 °F 10.4 °F 73% 30.14 in 10.0 mi West 10.4 mph - N/A   Clear
8:04 PM 17.6 °F 5.0 °F 8.6 °F 68% 30.15 in 10.0 mi West 11.5 mph - N/A   Clear
8:24 PM 15.8 °F 3.4 °F 8.6 °F 73% 30.16 in 10.0 mi West 10.4 mph - N/A   Clear
8:45 PM 15.8 °F 3.4 °F 8.6 °F 73% 30.17 in 10.0 mi West 10.4 mph - N/A   Clear
9:04 PM 15.8 °F 2.7 °F 8.6 °F 73% 30.17 in 10.0 mi WNW 11.5 mph - N/A   Clear
9:24 PM 14.0 °F 1.2 °F 6.8 °F 73% 30.18 in 10.0 mi WNW 10.4 mph - N/A   Clear
9:45 PM 14.0 °F 1.2 °F 6.8 °F 73% 30.18 in 10.0 mi WNW 10.4 mph - N/A   Clear
10:05 PM 12.2 °F 0.7 °F 6.8 °F 79% 30.19 in 10.0 mi WNW 8.1 mph - N/A   Clear
10:24 PM 12.2 °F -1.0 °F 6.8 °F 79% 30.20 in 10.0 mi WNW 10.4 mph - N/A   Clear
10:45 PM 12.2 °F -1.0 °F 6.8 °F 79% 30.20 in 10.0 mi WNW 10.4 mph - N/A   Clear
11:04 PM 12.2 °F -0.2 °F 6.8 °F 79% 30.21 in 10.0 mi WNW 9.2 mph - N/A   Clear
11:25 PM 10.4 °F -2.4 °F 6.8 °F 85% 30.21 in 10.0 mi WNW 9.2 mph - N/A   Clear
11:45 PM 10.4 °F -2.4 °F 6.8 °F 85% 30.21 in 10.0 mi WNW 9.2 mph - N/A   Clear